This is the latest recevied weather packets stored in our database for station/object N0HOT. If no packets are shown the sender has not sent any weather packets the latest 10 day(s).
| Time | Temp. | Humidity | Pressure | Rain* | Wind** | Luminosity | Snow |
|---|---|---|---|---|---|---|---|
| 1778016387 | 12.22° C | 27% | 1010.1 hPa | 0 mm | - | 157 W/m² | - |
| 1778016085 | 12.22° C | 27% | 1010.5 hPa | 0 mm | - | 157 W/m² | - |
| 1778015782 | 12.22° C | 27% | 1010.1 hPa | 0 mm | - | 186 W/m² | - |
| 1778015479 | 12.22° C | 27% | 1010.5 hPa | 0 mm | - | 184 W/m² | - |
| 1778015175 | 12.22° C | 26% | 1009.8 hPa | 0 mm | - | 193 W/m² | - |
| 1778014872 | 12.78° C | 27% | 1010.1 hPa | 0 mm | - | 228 W/m² | - |
| 1778014570 | 12.78° C | 27% | 1010.1 hPa | 0 mm | - | 231 W/m² | - |
| 1778014268 | 12.78° C | 28% | 1010.1 hPa | 0 mm | - | 151 W/m² | - |
| 1778013964 | 13.33° C | 26% | 1010.1 hPa | 0 mm | - | 190 W/m² | - |
| 1778013662 | 13.33° C | 25% | 1010.1 hPa | 0 mm | - | 204 W/m² | - |
| 1778013358 | 13.33° C | 25% | 1010.5 hPa | 0 mm | - | 235 W/m² | - |
| 1778013056 | 13.33° C | 25% | 1010.1 hPa | 0 mm | - | 294 W/m² | - |
| 1778012751 | 13.33° C | 23% | 1010.1 hPa | 0 mm | - | 288 W/m² | - |
| 1778012447 | 13.33° C | 25% | 1010.1 hPa | 0 mm | - | 671 W/m² | - |
| 1778012144 | 13.33° C | 26% | 1010.1 hPa | 0 mm | - | 771 W/m² | - |
| 1778011843 | 13.33° C | 25% | 1010.5 hPa | 0 mm | - | 290 W/m² | - |
| 1778011540 | 12.78° C | 25% | 1010.1 hPa | 0 mm | - | 330 W/m² | - |
| 1778011237 | 13.33° C | 24% | 1010.5 hPa | 0 mm | - | 391 W/m² | - |
| 1778010932 | 13.33° C | 25% | 1010.5 hPa | 0 mm | - | 538 W/m² | - |
| 1778010630 | 13.33° C | 25% | 1010.1 hPa | 0 mm | - | 412 W/m² | - |
| 1778010327 | 13.33° C | 26% | 1010.5 hPa | 0 mm | - | 959 W/m² | - |
| 1778010022 | 13.33° C | 25% | 1010.1 hPa | 0 mm | - | 269 W/m² | - |
| 1778009720 | 13.89° C | 23% | 1010.1 hPa | 0 mm | - | 539 W/m² | - |
| 1778009417 | 13.89° C | 23% | 1009.8 hPa | 0 mm | - | 229 W/m² | - |
| 1778009115 | 13.89° C | 26% | 1010.5 hPa | 0 mm | - | 758 W/m² | - |
* Rain latest hour (hover to see other rain measurements)
** Current wind speed in m/s (hover to see current wind gust speed)